Location: Penum?ka
(16.4840°N, 80.5772°E)
Time: 14:37:10
(UTC+00:00)

Cosmos 1844 Rocket - Pass Details

Date: 19 May 2025
Orbit: 822 x 845 km, 71.0° (Epoch: 17 June)

Event Time Altitude Azimuth Distance (km) Brightness Sun altitude
Exits shadow 23:32:14 10° 242° (WSW) 2,446 4.4 -8.3°
Reaches altitude 10° 23:32:18 10° 242° (WSW) 2,427 4.4 -8.3°
Maximum altitude 23:36:28 21° 291° (WNW) 1,762 4.0 -7.3°
Drops below altitude 10° 23:40:40 10° 340° (NNW) 2,441 5.2 -6.4°
Sets 23:43:41 0° 356° (N) 3,380 6.1 -5.8°
